FW3173 Weather Reports


time (UTC)temp
F
wind
direction
speed
knots
gust
knots
rain 1hr
in
rain 24hr
in
rain mn
in
humidity
%
barometer
mb
20260505151550 62 164 2.6 13.9 0.00 0.00 0.00 63 1012.5
20260505130107 53 178 7.0 12.2 0.00 0.03 0.00 79 1013.1
20260505124558 51 193 7.0 12.2 0.00 0.08 0.00 80 1013.2
20260505123054 50 314 3.5 10.4 0.00 0.08 0.00 82 1013.2
20260505121611 49 156 2.6 12.2 0.00 0.08 0.00 83 1013.0
20260505120046 48 209 7.0 13.9 0.00 0.08 0.00 83 1013.0
20260505114544 48 187 4.3 12.2 0.00 0.10 0.00 85 1012.9
20260505113042 47 238 6.1 13.9 0.00 0.10 0.00 85 1012.7
20260505111541 46 183 7.0 13.0 0.00 0.10 0.00 86 1012.7
20260505101532 44 221 4.3 11.3 0.00 0.13 0.00 90 1012.3
20260505100027 43 203 3.5 8.7 0.00 0.13 0.00 92 1012.1
20260505094525 42 167 2.6 8.7 0.00 0.16 0.00 92 1011.8
20260505093029 41 189 2.6 9.6 0.00 0.16 0.00 92 1011.5
20260505091524 41 129 2.6 8.7 0.00 0.16 0.00 91 1011.4
20260505090018 42 240 2.6 7.8 0.00 0.16 0.00 90 1011.5
20260505084519 43 175 3.5 9.6 0.00 0.20 0.00 90 1011.4
20260505083015 43 175 2.6 9.6 0.00 0.20 0.00 88 1011.4
20260505081516 43 180 4.3 10.4 0.00 0.20 0.00 90 1011.1
20260505080010 42 208 2.6 8.7 0.00 0.20 0.00 89 1011.0
20260505074508 43 239 4.3 12.2 0.00 0.22 0.00 89 1010.7
20260505073006 43 207 5.2 11.3 0.00 0.22 0.00 88 1010.6
20260505071505 43 205 6.1 13.9 0.00 0.22 0.00 88 1010.4
20260505070006 43 226 5.2 11.3 0.00 0.24 0.00 89 1010.1
20260505064501 43 234 6.1 13.0 0.00 0.24 0.00 89 1009.9
20260505063058 43 265 4.3 11.3 0.00 0.24 0.00 89 1009.8
20260505061600 42 191 6.1 13.0 0.00 0.24 0.00 89 1009.4
20260505060053 43 236 4.3 9.6 0.00 0.24 0.00 89 1009.2
20260505054551 42 203 4.3 9.6 0.00 0.28 0.00 89 1008.9
20260505053055 42 286 5.2 11.3 0.00 0.28 0.00 89 1008.8
20260505051547 42 214 4.3 9.6 0.00 0.28 0.00 88 1008.5
20260505041534 43 233 4.3 12.2 0.00 0.30 0.00 86 1007.6
20260505040031 44 204 5.2 12.2 0.00 0.30 0.00 86 1007.5
20260505034530 44 189 7.0 13.0 0.00 0.32 0.00 85 1007.3
20260505033037 44 218 7.0 12.2 0.00 0.32 0.00 85 1007.0
20260505031524 44 231 6.1 13.9 0.00 0.32 0.00 85 1006.9
20260505030026 44 232 5.2 13.0 0.00 0.32 0.00 85 1006.7
20260505024518 45 227 6.1 11.3 0.00 0.33 0.32 84 1006.5
20260505023017 45 230 6.1 12.2 0.00 0.33 0.32 84 1006.4
20260505021517 45 228 6.1 13.9 0.00 0.33 0.32 83 1006.3
20260505020015 46 225 7.8 14.8 0.00 0.33 0.32 83 1006.2
20260505014515 46 231 7.0 14.8 0.00 0.33 0.32 83 1006.0
20260505013012 46 220 7.0 17.4 0.00 0.33 0.32 82 1005.8
20260505011514 46 200 6.1 14.8 0.00 0.33 0.32 82 1005.7
20260505010009 46 215 7.0 13.9 0.00 0.33 0.32 82 1005.6
20260505004519 46 208 7.8 13.0 0.00 0.34 0.32 82 1005.6
20260505003107 45 199 5.2 10.4 0.00 0.34 0.32 82 1005.5
20260505001504 46 213 4.3 11.3 0.00 0.34 0.32 81 1005.4
20260505000005 46 206 5.2 13.9 0.00 0.35 0.32 80 1005.2
20260504234501 46 187 6.1 13.0 0.00 0.35 0.32 80 1004.8
20260504233058 47 240 5.2 13.9 0.00 0.35 0.32 79 1004.5
20260504231605 47 279 8.7 16.5 0.00 0.35 0.32 78 1004.3
20260504230055 47 234 9.6 18.2 0.00 0.35 0.32 72 1004.4
20260504224604 48 209 7.8 18.2 0.00 0.42 0.32 68 1004.1
20260504223052 47 211 6.1 13.0 0.00 0.42 0.32 72 1004.0
20260504221600 48 216 5.2 13.0 0.00 0.42 0.32 71 1003.7
20260504220053 50 236 7.0 13.9 0.00 0.42 0.32 67 1003.7
20260504214551 50 260 7.8 13.9 0.00 0.54 0.32 68 1003.6
20260504213052 51 218 4.3 11.3 0.00 0.54 0.32 67 1003.6
20260504211544 51 208 4.3 11.3 0.00 0.54 0.32 68 1003.6
20260504210052 50 239 6.1 11.3 0.00 0.54 0.32 70 1003.5
20260504204618 49 279 4.3 8.7 0.00 0.59 0.32 72 1003.2
20260504203037 49 246 3.5 11.3 0.00 0.59 0.32 72 1003.2
20260504201534 49 270 6.1 16.5 0.00 0.59 0.32 71 1003.0
20260504200038 49 239 7.0 14.8 0.00 0.59 0.32 70 1002.9
20260504194536 49 265 8.7 18.2 0.00 0.65 0.32 73 1002.6
20260504193031 48 199 7.8 14.8 0.00 0.65 0.32 75 1002.6
20260504191530 47 213 7.8 18.2 0.00 0.65 0.32 78 1002.4
20260504190030 49 298 12.2 20.0 0.00 0.65 0.32 73 1002.0
20260504184525 49 270 11.3 21.7 0.00 0.70 0.32 73 1001.7
20260504183022 49 229 11.3 24.3 0.00 0.70 0.32 76 1001.6
20260504181518 48 270 12.2 22.6 0.00 0.70 0.32 78 1001.4
20260504180016 47 239 11.3 22.6 0.00 0.70 0.32 79 1001.3
20260504174514 47 275 13.0 26.9 0.00 0.70 0.32 81 1001.0
20260504173009 45 200 12.2 22.6 0.00 0.70 0.32 83 1000.8
20260504171606 46 228 13.0 24.3 0.00 0.70 0.32 87 1000.6